Vertical_Velocity
-6 -5 -2 -4 -9 -1 1 7 -1 -4 -1 -3 -2 6 -15 8 -5 11 22 -8 -3 3
-3 -2 -4 -2 -2 -4 4 -1 5 5 -6 7 -14 -5 -9 -12 13 11 20 -3 5 -8
-0 -4 -4 0 -6 -4 3 2 3 7 -3 -2 8 -4 -6 -7 -3 11 3 22 13 -8
-2 -6 -4 -4 -2 -11 -4 2 -4 8 -4 -4 3 4 -4 3 7 -7 21 -2 4 2
-2 -2 -7 -2 -5 -6 -9 -1 -0 -3 1 -1 -6 1 4 -12 -7 -9 -7 14 9 -1
-2 -2 -3 -8 -1 1 -4 -2 4 -1 -0 -6 -1 -4 1 -9 -9 -9 4 8 8 8
-1 -1 -3 -4 -6 -3 -6 -5 5 6 -0 2 2 -5 -3 -2 -10 -9 -6 -11 -4 11
-2 -2 -3 -0 -3 0 -4 -5 3 5 -3 0 3 4 -3 -3 -2 -10 -1 -2 -4 12
-1 -1 0 -2 2 -1 2 -2 -8 4 -5 3 4 -0 -7 -5 -12 -1 1 4 1 -13
-1 -4 -1 1 -3 4 -2 -1 -0 1 -1 1 6 4 -2 -0 10 -15 -4 -3 -0 -16
-1 2 -8 0 2 -2 1 -1 -2 -3 6 1 19 21 9 12 25 51 41 -4 1 -5
-1 1 4 -7 3 -1 -2 4 1 -8 -3 1 13 12 10 12 -1 35 3 11 5 4
-2 -1 2 2 -4 3 1 2 8 -0 -7 0 -5 8 -2 4 -6 23 34 3 1 -7
-1 -2 -2 4 1 -3 -2 2 1 5 7 -6 1 -2 19 25 5 7 3 -2 -6 4
Height
5587 5584 5582 5583 5586 5587 5592 5596 5605 5615 5624 5629 5646 5651 5664 5677 5684 5685 5706 5715 5728 5739
5578 5573 5571 5571 5573 5574 5576 5581 5585 5594 5606 5612 5624 5634 5652 5663 5670 5681 5688 5696 5714 5723
5569 5563 5561 5561 5561 5561 5564 5566 5568 5574 5586 5598 5604 5615 5628 5645 5653 5665 5676 5683 5698 5707
5562 5556 5553 5551 5551 5551 5550 5552 5555 5558 5566 5580 5590 5597 5611 5627 5639 5652 5661 5670 5684 5695
5555 5550 5545 5542 5541 5540 5536 5537 5540 5546 5551 5561 5573 5582 5591 5606 5625 5636 5643 5659 5668 5677
5546 5542 5538 5531 5529 5529 5528 5529 5529 5533 5540 5547 5556 5569 5578 5586 5605 5619 5635 5645 5653 5663
5540 5535 5531 5524 5519 5517 5519 5519 5520 5523 5529 5536 5543 5555 5566 5573 5587 5605 5621 5632 5639 5652
5533 5528 5523 5518 5512 5509 5510 5512 5512 5517 5522 5527 5532 5541 5551 5561 5572 5588 5607 5617 5627 5639
5528 5523 5518 5512 5506 5502 5502 5505 5507 5511 5515 5520 5526 5532 5540 5551 5560 5573 5592 5602 5614 5622
5523 5519 5515 5509 5502 5497 5496 5498 5500 5503 5508 5513 5517 5524 5531 5534 5550 5557 5573 5585 5599 5609
5520 5515 5512 5506 5500 5494 5492 5492 5494 5499 5501 5505 5507 5517 5520 5527 5545 5549 5561 5569 5586 5598
5516 5512 5506 5503 5497 5492 5488 5485 5487 5492 5494 5500 5501 5511 5519 5525 5536 5542 5546 5558 5571 5585
5508 5505 5502 5499 5495 5490 5486 5481 5482 5485 5489 5493 5498 5504 5514 5522 5532 5540 5541 5546 5559 5575
5507 5502 5496 5494 5492 5489 5484 5480 5478 5478 5481 5489 5492 5496 5506 5513 5517 5526 5531 5538 5551 5563